Regional Weather Roundup
Issued by NWS

Home | Current Version | Previous Version | Graphics & Text | Print | Product List | Glossary On
Versions: 1 2 3 4 5 6 7 8 9 10 11 12 13 14 15 16 17 18 19 20 21 22 23 24 25 26 27 28 29 30 31 32 33 34 35 36 37 38 39 40 41 42 43 44 45 46 47 48 49 50
000
ASUS45 KSLC 090010
RWRUT

UTAH REGIONAL WEATHER ROUNDUP
NATIONAL WEATHER SERVICE SALT LAKE CITY UT
500 PM MST MON FEB 08 2016

UTZ001>011-023>025-090100-

NORTHERN UTAH

CITY           SKY/WX    TMP DP  RH WIND       PRES   REMARKS
BRIGHAM CITY   MOCLDY    31  23  73 CALM      30.65S
HILL AFB       MOCLDY    37  23  59 NW5       30.62S WCI  33
LOGAN          MOCLDY    23  18  81 N3        30.64F HAZE
OGDEN          PTCLDY    34  26  72 NW5       30.62F WCI  30
PROVO AIRPORT  MOCLDY    28  19  69 CALM      30.64S
SALT LAKE CITY MOCLDY    37  29  72 W8        30.63S WCI  31
VERNAL         CLOUDY    25  16  68 E6        30.53F WCI  18
WENDOVER       CLEAR     39  28  65 SE5       30.63F
HEBER CITY     CLEAR     32  19  59 CALM      30.58S
WEST JORDAN    CLEAR     36  30  80 NW7       30.63S WCI  30

$$

UTZ012>022-026-027-090100-

SOUTHERN/CENTRAL UTAH

CITY           SKY/WX    TMP DP  RH WIND       PRES   REMARKS
BLANDING       CLEAR     46  28  48 CALM      30.52R
BRYCE CANYON   SUNNY     38  22  52 N7        30.55S WCI  33
CEDAR CITY     SUNNY     37  27  67 CALM      30.54F
DELTA          CLEAR     25  21  83 SW6       30.63S WCI  18
HANKSVILLE     CLEAR     39  27  60 CALM      30.55S
MILFORD        SUNNY     30  24  78 N13       30.59S WCI  20
MOAB/CYNLANDS  PTCLDY    32  23  69 CALM      30.52S
PRICE          PTCLDY    40  20  44 CALM      30.50F
ST GEORGE      CLEAR     63  27  25 CALM      30.42S
KANAB          SUNNY     57  27  30 E14       30.46S

$$

REGIONAL REPORTS     COLORADO/ARIZONA

CITY           SKY/WX    TMP DP  RH WIND       PRES   REMARKS
CRAIG, CO      CLOUDY    20  14  77 CALM      30.52F
GRAND JUNCTION CLEAR     33  27  78 N6        30.51S WCI  28
RIFLE          CLOUDY    36  21  54 S3        30.50S
MONTROSE       CLOUDY    39  22  50 CALM      30.51F
CORTEZ         CLOUDY    49  24  37 CALM      30.40R
PAGE, AZ       CLEAR     50  24  36 NE6       30.47R
GRAND CANYON   SUNNY     51  22  31 NE17G24   30.48S
KINGMAN        SUNNY     68  22  17 N15       30.31R
FLAGSTAFF      SUNNY     49  17  28 NE14      30.45R

$$

REGIONAL REPORTS    NEVADA/IDAHO/WYOMING

CITY           SKY/WX    TMP DP  RH WIND       PRES   REMARKS
LAS VEGAS, NV  SUNNY     72  24  16 NE8       30.30S
ELY            SUNNY     31  24  75 S6        30.59S WCI  25
ELKO           SUNNY     33  21  61 NE6       30.61F WCI  28
POCATELLO, ID  CLOUDY    29  26  89 NE6       30.65F WCI  23
BURLEY         PTCLDY    32  28  85 NE10      30.62F WCI  24
EVANSTON, WY   CLOUDY    31  18  58 N5        30.58S WCI  26
ROCK SPRINGS   CLOUDY    34  25  69 SW18      30.48R WCI  23
KEMMERER       CLOUDY    34  27  75 NW8G16    30.55R WCI  27

$$



USA.gov is the U.S. government's official web portal to all federal, state and local government web resources and services.